Weather in Olshanka

Russia / Saratov Oblast     51°09′55″N   43°40′17″E
temp.,
°C
wind,
m/s
gust,
m/s
humid.,
%
clouds,
%
prec.,
mm/h
press.,
hPa
HPBL,
m
29 june, wed
wed2901:00+14ne49790 0.0 1018183
04:00+12e35810 0.0 101974
07:00+14ene23700 0.0 1020158
10:00+18ne33520 0.0 10201255
13:00+21nne55425 0.0 10191954
16:00+21nne55405 0.0 10192058
19:00+20n45490 0.0 10181691
22:00+14nne46680 0.0 101884
30 june, thu
thu3001:00+12ne34780 0.0 101847
04:00+11ne11830 0.0 101810
07:00+13n23730 0.0 1018136
10:00+18n33530 0.0 10171150
13:00+21nnw444541 0.0 10162051
16:00+23nw464037 0.0 10142412
19:00+20nnw475258 0.0 1014600
22:00+17nw2256100 0.0 101412
1 july, fri
fri101:00+15wnw346599 0.0 101354
04:00+13wnw3671100 0.0 1012134
07:00+14nw498059 0.3 1011314
10:00+16nne68648 0.4 10121137
13:00+18n894127 0.0 10131900
16:00+15nne81052100 0.0 10141645
19:00+13n71063100 0.0 10151420
22:00+10nnw6118389 0.2 1015702
2 july, sat
sat201:00+11nnw9158897 1.4 1014947
04:00+11n9169155 1.4 1013686
07:00+12n7128794 0.0 1014695
10:00+17n9136439 0.0 10141225
13:00+18n81265100 0.4 10141686
16:00+20n9125562 1.3 10141830
19:00+20n812565 0.1 10141599
22:00+14nnw49746 0.1 1015148
3 july, sun
sun301:00+13nnw488018 0.0 1015118
04:00+13nnw34805 0.0 101458
07:00+15nnw24735 0.0 1014136
10:00+21nnw3455100 0.0 1014731
13:00+25nnw5744100 0.0 10142585
16:00+25nnw3646100 0.0 10141833
19:00+24nw475168 0.0 1013726
22:00+20nw336936 0.1 101444